User: anonymous   Login
Location: Unspecified
(0.0000°N, 0.0000°E)
Time: 00:24:13
(UTC+02:00)
Language:

ARIANE 5 R/B - Orbit

View from above orbital plane
View from above orbital plane
View from above satellite
View from above satellite

Ground track
Ground track

The orbit data is extracted from the following two-line orbital elements,

1 29646U 06054D   17291.21282623  .00001435  00000-0  44993-3 0  9993
2 29646   2.6310 267.9124 7087192  73.1543 348.7190  2.52370875 94823
Epoch (UTC): 18 October 2017 05:06:28
Eccentricity: 0.7087192
inclination: 2.6310°
perigee height: 259 km
apogee height: 32560 km
right ascension of ascending node: 267.9124°
argument of perigee: 73.1543°
revolutions per day: 2.52370875
mean anomaly at epoch: 348.7190°
orbit number at epoch: 9482

The dashed part of the orbit path shows where the satellite is in the earth's shadow,  

DLR